Utilizamos cookies propias y de terceros para mejorar su experiencia y nuestros servicios, analizando la navegación en nuestro Sitio Web. Si continúa navegando, usted está aceptando su uso. Puede obtener más información en nuestra Política de cookies. OK

En vivo: Marató del Montseny

Marató del Montseny

Turó de l'Home - Intermig


31
Pendientes

501
Han pasado

Hombres

# - Posició P.C. - Participant Temps Dorsal

1 - 1 - ALBERT PUJOL GARCIA 03:15:12 4

2 - 2 - FERNANDO LóPEZ DE SAGREDO XICOTA 03:18:16 3

3 - 3 - GUILLEM CAMPANY BASTIDA 03:18:28 406

4 - 4 - EUGENI GIL OCAÑA 03:20:47 2

5 - 5 - ZAID AID MALEK 03:28:01 1

6 - 6 - CARLOS MERLOS GARCIA 03:30:32 318

7 - 7 - MARTIN MAC-GRAGH AMONDARAIN 03:31:27 409

8 - 8 - ALBERT GARCIA COBOS 03:32:06 365

9 - 9 - ROBERTO GARCIA FERNáNDEZ 03:34:39 6

10 - 10 - XEVI VIDAL SUBINYA 03:35:56 5

11 - 11 - JOSEP VIÑAS SOLER 03:38:04 20

12 - 12 - XAVI LLAMAS BOZA 03:40:14 583

13 - 13 - JORDI RIAL COMELLAS 03:45:44 562

14 - 14 - OSCAR FLORES LOPEZ 03:47:52 343

15 - 15 - AGUSTÍ ISÚN NET 03:48:58 549

16 - 16 - ISAAC TORIJA GONZALEZ 03:50:22 313

17 - 17 - TONI COLL BERNAT 03:52:34 179

18 - 18 - VICENT HERRERA COSCOLLANO 03:54:49 428

19 - 19 - DAVID FRIAS PEREZ 03:54:55 563

20 - 20 - SERGI BEL BENEYTO 03:54:58 453

21 - 21 - DANI REDON SOL 03:55:05 243

22 - 22 - JOSEP MARIA REY CARRERAS 03:55:16 269

23 - 23 - JAUME MARTI ZULET 03:55:25 400

24 - 24 - PABLO MIGUEL CHORRO HERNANDEZ 03:55:38 481

25 - 25 - JOAN MANEL VERDAGUER FONT 03:58:12 353

26 - 26 - ERIK GUILLEM STENINGER GARçON 03:58:44 302

27 - 27 - ISAM MOUNIR . 03:59:15 85

28 - 28 - JOSÉ MANUEL HUMANES FERNÁNDEZ 04:00:12 513

29 - 29 - DAVID ACEDO RODRIGUEZ 04:00:46 627

30 - 30 - SERGIO SANTOS GARCIA 04:01:48 487

31 - 31 - JOSEP PERA VALL-LLOSERA 04:02:14 455

32 - 32 - ALEIX CUNILLERA CAPSIR 04:02:30 642

33 - 33 - EDUARD BARTRéS ALVAREZ 04:03:28 388

34 - 34 - MARC AGUILAR I MOLIST 04:04:49 618

35 - 35 - IGNASI BASSAS BUJ 04:05:22 590

36 - 37 - JORGE ROMERO CRISPIN 04:06:30 550

37 - 38 - GENíS MATEU SALARICH 04:07:17 261

38 - 39 - LLUíS CORTADELLAS VILLAGRá 04:08:09 546

39 - 40 - EDUARDO PASCUAL CUESTA 04:08:26 101

40 - 41 - ANDRÉS PÉREZ TISCAR 04:08:43 274

41 - 42 - JAVIER PONS SINTES 04:09:06 460

42 - 43 - DAVID JIMéNEZ JIMéNEZ GARCíA 04:13:03 536

43 - 44 - MARC MASRAMON BALLUS 04:14:44 507

44 - 45 - DAVID TORREJON GONZALEZ 04:17:13 249

45 - 46 - JOAN ANTON SANCHEZ ALVAREZ 04:17:29 566

46 - 47 - MARC LARROYA ESPINOSA 04:17:39 582

47 - 48 - JORDI CASANOVAS ZURANO 04:19:01 394

48 - 49 - ALBERT MUñOZ BUENO 04:19:15 403

49 - 50 - FRANCESC ROCABRUNA MARTINEZ 04:20:01 192

50 - 51 - CARLOS COLLADO RUEDA 04:20:16 491

51 - 52 - ERNESTO MILLAN DE PRADO 04:21:21 145

52 - 53 - EDUARDO GALáN LOZANO 04:21:23 126

53 - 54 - CARLOS RODAS RUIZ 04:21:36 390

54 - 55 - ERIC TORT AYMERICH 04:21:37 444

55 - 56 - JOSÉ ORTEGA CHUECO 04:21:48 333

56 - 57 - DAVID SANCHEZ DANIEL 04:22:09 412

57 - 58 - JORDI CABALL REIG 04:22:16 280

58 - 59 - RAFA FERNANDEZ FUNTES 04:23:50 469

59 - 60 - CARLOS FERNáNDEZ DE DIOS 04:24:06 59

60 - 62 - SERGI RODRIGUEZ MARTOS 04:24:39 369

61 - 63 - ADAM ALONSO PASCUAL 04:26:14 178

62 - 64 - CARLOS ORRA NUñEZ 04:26:46 303

63 - 65 - SAMUEL BUENO GUTIERREZ 04:27:05 515

64 - 66 - SERGIO CABEZA GONZáLEZ 04:27:09 544

65 - 67 - IVÁN PEREA JIMENEZ 04:27:27 499

66 - 68 - OMAR GALDON ARRUé 04:27:56 204

67 - 69 - DíDAC ALMANZA DIAZ 04:28:23 421

68 - 70 - JORDI BARRANCOS SOLERA 04:28:27 398

69 - 71 - ALBERT MUÑOZ MUÑOZ 04:28:52 641

70 - 72 - JOSEP SANMARTI PUJOL 04:30:08 626

71 - 73 - SERGI ORTEGO BLANCO 04:33:13 520

72 - 74 - MANUEL PLAZA SIERRA 04:33:14 442

73 - 75 - JUAN JOSE MASGRAU MAIRELES 04:33:23 63

74 - 76 - XAVI ABRIL SUAUS 04:34:04 194

75 - 77 - JOAQUIN BURGOS CIBRIAN 04:34:11 474

76 - 78 - DANI FERNANDEZ FUSTER 04:34:18 577

77 - 79 - CHARLY RECIO GALOBARDES 04:34:37 596

78 - 80 - LLUIS BLANES RODRIGUEZ 04:35:02 545

79 - 81 - DANI TOMAS RUBIO 04:35:18 288

80 - 82 - JUANJO CALVO ORTIZ 04:35:21 175

81 - 83 - SALVADOR VALERI SALA 04:35:24 397

82 - 84 - ALBERT MERCADE SERRA 04:35:29 503

83 - 85 - LUIS SAN MARTIN TESTÓN 04:35:34 260

84 - 86 - F. XAVIER VICEDO MARZO 04:35:44 319

85 - 87 - RAMON CARBONELL ISANT 04:35:45 272

86 - 88 - JOAN MANEL JODAR GRIFUL 04:35:47 588

87 - 89 - JUAN ANTONIO NAVARRO 04:35:48 106

88 - 90 - CESC BALSELLS 04:35:50 141

89 - 91 - BRU FIGUERAS TORRENTE 04:35:57 358

90 - 92 - DAVID TERUEL HUGUET 04:35:59 552

91 - 94 - DAVID CRUZATE PALOMO 04:36:33 104

92 - 95 - MIQUEL VILA DORA 04:37:44 210

93 - 96 - ALEJANDRO GOMEZ BARRIO 04:38:01 183

94 - 97 - DANIEL SANCHO MOLINA 04:38:28 293

95 - 98 - POL CARULLA SOLA 04:38:45 289

96 - 99 - EDUARDO MáRMOL MARCO 04:38:48 511

97 - 100 - ALBERT ROBLEDA FONT 04:39:28 576

98 - 101 - BERNAT RAMON CASTELLà 04:39:35 411

99 - 102 - JOSE LUIS GARRIDO BARCENAS 04:39:38 88

100 - 103 - SHAHID ASHRAF ASHRAF 04:39:56 567

101 - 105 - ÒSCAR FERNàNDEZ-CONDE CORTINA 04:40:22 519

102 - 106 - SERGI GISBERT LOREN 04:40:30 224

103 - 107 - JOSE ARANDA FERNáNDEZ 04:40:50 130

104 - 108 - XAVI BLANCO REYES 04:41:07 207

105 - 110 - JORDI VISTOS FAJA 04:41:48 493

106 - 111 - CESAR GARRA SORIA 04:42:21 386

107 - 112 - JOAN BORRàS TARANCóN 04:42:37 505

108 - 113 - AGUSTIN CACERES HERNANDEZ 04:43:45 221

109 - 114 - NIC BOLIART ROMERO 04:44:33 458

110 - 116 - JORDI RIBAS SERRA 04:45:04 537

111 - 117 - MANUEL ANGEL GUTIéRREZ GALIOT DE 04:46:28 282

112 - 118 - SERGIO RODRIGUEZ HIDALGO 04:46:32 161

113 - 119 - MARCEL JANER FONT 04:47:18 500

114 - 120 - DIDAC VIÑALLONGA PUNSOLA 04:47:21 265

115 - 121 - IVAN ARRUFAT CID 04:47:32 122

116 - 122 - EUGENIO SANCHO SANCHO REDONDO 04:47:35 410

117 - 123 - MANU CIURANA YANES 04:48:19 188

118 - 124 - BAREND VAN DROOGE 04:48:28 449

119 - 125 - MARC ARMENGOL RABAL 04:48:30 23

120 - 126 - ROGER SOLANAS JANE 04:48:38 525

121 - 127 - JORDI CORDOBA GONZALEZ 04:49:13 501

122 - 128 - MATTEO CANTU . 04:50:09 347

123 - 129 - OSCAR DIAZ ALTABA 04:50:13 378

124 - 130 - MARC TEIXé VILADOT 04:50:14 7

125 - 131 - BERNAT MATEU POU 04:50:35 624

126 - 132 - JOAN JOSEP QUERLT GALLEN 04:51:07 450

127 - 133 - MARTIN CAñELLAS AMER 04:52:20 32

128 - 134 - SANTI ALCARAZ FERNANDEZ 04:52:33 75

129 - 135 - JOAN RAMON PROFUMO VENTURA 04:52:37 47

130 - 136 - GABRIEL MANZANO VILCHEZ 04:52:41 46

131 - 137 - JUAN JAVIER GARCíA MARTíNEZ 04:52:45 14

132 - 138 - ALVARO URBANO MARTIN 04:53:19 604

133 - 139 - FABIO MORBINI 04:53:35 452

134 - 140 - DANIEL ALMONACID VICTORIANO 04:54:01 92

135 - 141 - NOEL FORNE VALENCIA 04:54:03 625

136 - 142 - KENICHI HANASAKI 04:54:06 586

137 - 143 - JOSE LUIS ARRABAL CANET 04:54:10 327

138 - 144 - CARLOS ARRUFAT BARTOLOME 04:54:15 43

139 - 145 - OSCAR MORAL HIDALGO 04:54:18 120

140 - 146 - TONI JOFRE MARIN 04:54:29 494

141 - 147 - MARC CRUSET SEGURA 04:54:35 506

142 - 148 - EDUARDO SANCHEZ-MONGE ALEÑAR 04:55:09 108

143 - 149 - FRANCESC PANISELLO MAS 04:55:52 603

144 - 150 - FRANCESC LLUPIà CAPARRóS 04:55:56 574

145 - 151 - AGUSTIN FABREGA BRANCHAT 04:57:56 510

146 - 152 - JAUME FONTANET MASERO 04:58:05 613

147 - 153 - JOSEP GIL SEGú 04:58:07 617

148 - 154 - ORIOL BRUFAU I TORRENTS 04:58:09 393

149 - 155 - DOMINGO RUBIO GRANDE 04:58:11 600

150 - 156 - JOSEP PUJOL RIUS 04:58:14 49

151 - 157 - ALBERT BARO RIBES 04:58:18 312

152 - 158 - JOAN GARRIGA FERRER 04:58:23 111

153 - 159 - JUANMI PIQUERAS CALERO 04:58:24 155

154 - 161 - JORDI VISSI GARCIA 04:58:27 419

155 - 162 - DAVID DURAN CASANOVA 04:58:29 462

156 - 163 - XAVIER MENéNDEZ OLCINA 04:58:52 423

157 - 164 - ARNAU BARBA MARTíNEZ 04:58:53 325

158 - 165 - IGNASI CUSÓ FERRÉ 04:59:22 84

159 - 166 - ORIOL RUBIO BELLAVISTA 04:59:57 251

160 - 167 - MARIO MURCIANO MARCO 04:59:58 471

161 - 168 - ISRAEL MEDALLA HERRERA 05:00:00 54

162 - 169 - RUBEN VICENTE PUERTAS 05:00:04 523

163 - 170 - JULIO MíNGUEZ MORENO 05:00:13 399

164 - 171 - PEP ZAMORA BURGUES 05:00:42 244

165 - 172 - DIEGO GUEVARA CUELLAR 05:01:16 234

166 - 173 - CARLOS ESPAñA GADEA 05:01:26 215

167 - 174 - FERNANDO BARCOS NAVARRO 05:02:03 275

168 - 175 - MARC HERNANDEZ GONZáLEZ 05:02:06 41

169 - 176 - RICARD SANMARTIN MASES 05:02:07 565

170 - 177 - QUIM ARTIZâ MANRESA 05:02:08 74

171 - 178 - TONI LóPEZ MARíN 05:02:12 385

172 - 179 - DAVID OCARIZ FERREIRO 05:02:35 257

173 - 180 - PEDRO FELIP BELENGUER 05:02:55 22

174 - 181 - CRISTIAN LLACUNA BELTRAN 05:03:00 426

175 - 182 - ROBERTO NICOLAS FERNANDEZ 05:03:04 379

176 - 184 - JOAN BROS MENDOZA 05:03:25 556

177 - 185 - IGNACIO GUERRA GONZÁLEZ 05:03:26 638

178 - 186 - MANUEL ORTEGA GARCIA 05:03:33 283

179 - 187 - MIQUEL CASAS JULVE 05:04:11 389

180 - 188 - MIQUEL CODONY BOVER 05:04:14 374

181 - 190 - JORDI POVEDANO RIVERA 05:04:24 381

182 - 191 - CARLES TRIGINER ROIG 05:04:32 245

183 - 192 - EDUARD AGUILERA SANE 05:05:02 368

184 - 193 - JORDI MAYANS BUENO 05:05:20 479

185 - 194 - PACO ALCAZAR FIGUEROA 05:05:23 103

186 - 195 - DAVID ESTRELLA SALAGRAN 05:05:26 475

187 - 196 - JORDI PUIG TRAMUNT 05:05:32 538

188 - 197 - ENRIC MIRó BARBA 05:05:36 250

189 - 198 - JAVIER ROMERO MARCOS 05:05:37 517

190 - 199 - ARNAU RUBIÓ RUART 05:05:42 352

191 - 200 - SERGI SERRA MONTASELL 05:05:52 100

192 - 201 - VICTOR VALDERRAMA LEON 05:05:54 564

193 - 202 - DANI TORRES MARTIN 05:05:55 324

194 - 203 - JAVIER ABARCA VEGAS 05:06:50 456

195 - 204 - ALBERT SANS SOLER 05:06:51 270

196 - 205 - OSKAR PUERTA REDONDO 05:06:53 585

197 - 206 - JOSE LUIS PARRA GARCIA 05:06:55 490

198 - 207 - JORDI AGUSTINA REYES 05:07:01 372

199 - 208 - ISRAEL REYES GARCIA 05:07:04 252

200 - 209 - VICENç VIVó MARTí 05:07:08 127

201 - 211 - CARLOS BENITEZ ANDREU 05:08:07 470

202 - 212 - JOAN FORCADA BULBENA 05:08:28 220

203 - 213 - BERNARDO CARRERA GIRALDEZ 05:08:36 441

204 - 214 - ANDREU ESTEVE TORRES 05:09:10 578

205 - 215 - ORIOL PISOS TABERNER 05:09:11 497

206 - 216 - SALVADOR FRENICHE GARCIA 05:09:14 235

207 - 217 - JUAN OTERO AGUILERA 05:10:57 357

208 - 218 - JOEL JOLI OBIOLS 05:10:58 402

209 - 219 - MARIUS RUSU 05:10:59 173

210 - 220 - PERE JIMENEZ RUIZ 05:11:16 125

211 - 221 - JOSE RUIZ MOLINA 05:11:27 489

212 - 222 - FRANCESC XAVIER MIQUEL I CASTAñER 05:11:55 107

213 - 223 - ALVARO FILLAT MURT 05:11:58 514

214 - 224 - SERGI GORDON NAVARRO 05:12:41 134

215 - 226 - DANIEL ROVIRA ESPINOSA 05:12:46 62

216 - 227 - PERE PONT PANÉ 05:13:02 454

217 - 228 - JONATHAN ANTONI CIERCO 05:13:09 332

218 - 229 - RAUL MATO GALAN 05:13:11 572

219 - 230 - DAVID VIñAS MARTíN 05:13:17 628

220 - 231 - JORDI MORENO VILLANUEVA 05:13:23 113

221 - 232 - GORGO GONGORA JIMENEZ 05:13:26 616

222 - 233 - ROGER BADIA PUIGGALI 05:13:29 297

223 - 234 - FRAN MORENO GUTIERREZ 05:13:30 336

224 - 236 - IVAN DIAZ PONS 05:13:37 45

225 - 237 - DAVID POSTIGUILLO GALA 05:13:41 36

226 - 239 - ALBERTO ROCA VALERO 05:13:49 55

227 - 240 - MIGUEL ÁNGEL PEREZ RUIZ 05:14:48 12

228 - 241 - CARLOS SANTANDER SERRANO 05:14:56 68

229 - 242 - OSCAR CALDERÓN GONZÁLEZ 05:14:59 10

230 - 243 - SERGIO CHACON CORVO CHACON CORVO 05:15:13 168

231 - 244 - ALEX PUEYO 05:15:24 198

232 - 246 - PERE ARTIGAS GARCIA 05:15:29 91

233 - 247 - LLORENÇ ABAD ARMENDARES 05:15:31 422

234 - 248 - SERGIO RUIZ OSORIO 05:15:33 518

235 - 249 - ADRIA CARCASSONA GAY 05:15:39 473

236 - 250 - JORDI OLIVE FERNANDEZ 05:15:40 114

237 - 251 - VíCTOR PéREZ BLASCO 05:15:44 253

238 - 252 - JORDI GARRIDO SANCHEZ 05:15:45 239

239 - 253 - JOAN RIUS PIFERRER 05:15:46 516

240 - 254 - JOSE SANCHIS LóPEZ 05:16:11 321

241 - 255 - RAMON VAZQUEZ MIRANDA 05:16:19 311

242 - 256 - ISRAEL MATAS GONZáLEZ 05:17:31 484

243 - 257 - JOSé MANUEL SOLA PéREZ 05:18:26 561

244 - 260 - VICENç CLARENA RIERA 05:19:45 579

245 - 261 - JOAN GELABERT JUANOLA 05:19:47 425

246 - 262 - RAMON VARGAS AGUILERA 05:19:48 482

247 - 263 - CARLES SOLIVERA RETCHAS 05:20:11 448

248 - 264 - ENRIC MATAS BONJORN 05:21:23 535

249 - 265 - CARLES ADMETLLA SALVATELLA 05:22:36 79

250 - 266 - ALEX VALLS TRABAL 05:23:35 439

251 - 267 - FELIX UCEDA PEREA 05:23:44 371

252 - 268 - POL MAS LLOPART 05:24:15 415

253 - 269 - MARC COLLADO BELLA 05:24:22 414

254 - 270 - JERONI SABATE SANCHEZ 05:24:53 213

255 - 271 - TONI ORTEGA LOPEZ 05:25:01 610

256 - 272 - JOSE ANGEL LOPEZ FREIJE 05:26:16 50

257 - 273 - OSCAR LECUONA 05:26:18 310

258 - 274 - JOEL ORMENO 05:26:26 363

259 - 275 - CARLOS PEREZ MARCHENA 05:26:32 568

260 - 276 - JORDI HIGUERUELO 05:26:34 53

261 - 277 - DAVID COUSIN MARTí 05:26:35 322

262 - 278 - UNAI ARTETA CASTELAR 05:26:37 51

263 - 279 - JORDI GOMEZ COLL 05:26:38 326

264 - 280 - ALBERTO ALONSO HERNANDEZ 05:26:39 112

265 - 283 - PER ERIKSSON ERIKSSON 05:26:50 9

266 - 284 - DAVID SERRAHIMA I ARTIGA 05:26:53 152

267 - 286 - JUAN GABRIEL NAVARRO GARCíA 05:27:22 61

268 - 287 - MAURICIO ALTARRIBA PALOMARES 05:27:46 599

269 - 288 - EDGAR GAIG DIEGUEZ 05:27:52 237

270 - 289 - RICARD ALVAREZ IGLESIAS 05:28:06 634

271 - 290 - ALBERT RAMIREZ GONZáLEZ 05:28:10 636

272 - 291 - JORDI REYES SOLA 05:28:16 635

273 - 291 - JOSEP SANFELIU PARRADO 06:03:05 256

274 - 292 - PITU MORON HERRADOR 05:28:41 219

275 - 293 - XAVIER FREIXAS MORADELL 05:29:18 64

276 - 294 - TONI VILA CARQUéS 05:29:30 633

277 - 295 - JOAN MARGALEF ESCALA 05:29:43 246

278 - 297 - JORDI REY DE MAYA 05:29:45 405

279 - 298 - MARC COMA JURADO 05:29:52 320

280 - 299 - DIDIER GAY 05:30:23 206

281 - 300 - JORDI ESTEBAN ZABALA 05:30:25 330

282 - 301 - JAVIER CHACóN RESINA 05:30:34 434

283 - 302 - JUAN CARLOS ROMERO NAVARRO 05:30:38 11

284 - 303 - JOAN CASACUBERTA MASFERRER 05:30:41 529

285 - 305 - BERNAT FARRES BORDA 05:30:46 543

286 - 307 - LUIS LIMPO GONZALO 05:30:50 307

287 - 308 - JOSEP ALCAIDE DAVIA 05:30:51 466

288 - 309 - JOSEP MARIA QUERAL I RIPOLLéS 05:30:54 339

289 - 310 - MANEL VAZQUEZ CLEMENTE 05:30:56 387

290 - 311 - CELIO BELLUCCO CAMILO 05:30:57 468

291 - 312 - JOSE RODRíGUEZ TRIBALDOS 05:31:22 472

292 - 313 - DANIEL MARTíNEZ LORENTE 05:32:23 193

293 - 314 - FELIX LENGUAS 05:32:34 33

294 - 315 - JHONNATHAN DA SILVA 05:33:06 446

295 - 316 - PEP NIETO CASTELLÓ 05:33:11 8

296 - 317 - JOSE ANTONIO VAZQUEZ FERNANDEZ 05:33:18 154

297 - 318 - JORGE GARCIA RODRIGUEZ 05:33:19 119

298 - 319 - XAVI GUTIERREZ PEREZ-MILA 05:33:23 205

299 - 320 - RAMON CODINA MASONS 05:33:28 553

300 - 321 - LLORENç REIXACH CRUZ 05:33:45 467

301 - 323 - JUAN CARLOS CAZORLA BARBUDO 05:33:57 407

302 - 324 - JESúS OSUNA CAPITáN 05:34:02 631

303 - 325 - ISMAEL RUIZ VALLE 05:34:09 629

304 - 326 - FERRAN SOLER SEBASTIà 05:34:34 38

305 - 327 - LUIS PéREZ GIL 05:34:36 159

306 - 328 - EDUARD MIRALLES JOVE 05:34:41 480

307 - 329 - SIMóN MECA ARENAS 05:35:06 440

308 - 330 - RAUL GóNGORA MARTIN 05:35:26 429

309 - 331 - DAVID MORENO BOLAñOS 05:35:36 643

310 - 332 - CARLES PORRAS DOMENECH 05:36:39 340

311 - 333 - JUAN BEJAR CAZORLA 05:36:46 278

312 - 334 - JOSEP M. BASTER ROVIRALTA 05:37:06 438

313 - 335 - JORDI MARTINEZ MAZCUñAN 05:37:36 52

314 - 336 - JORDI RASCON SOTO 05:37:44 191

315 - 338 - MANEL BERBEL ACOSTA 05:37:47 337

316 - 339 - MANUEL MATA GARCíA 05:37:49 437

317 - 340 - ALVARO RODRIGUEZ 05:37:51 42

318 - 341 - DAVID FERNANDEZ ESPINOSA 05:38:01 592

319 - 342 - JAVI GAT GARCíA 05:38:09 539

320 - 343 - JOSé MARíA MARTINEZ 05:40:23 197

321 - 344 - MARC SEUMA MESAS 05:40:30 95

322 - 345 - BRUNO MANANT 05:40:37 377

323 - 346 - SANTI JIMENEZ RUIZ 05:40:42 240

324 - 347 - MARC PEREZ REDONDO 05:40:59 530

325 - 348 - FRANCSCO JAVIER MUñOZ-TORRERO CALDERON 05:41:03 285

326 - 349 - CLAUDIO LEONEL GALATI 05:41:15 267

327 - 350 - DAVID JIMENEZ RICO 05:41:46 451

328 - 351 - JORDI LUZ FOGLIETTI 05:41:49 432

329 - 352 - CARLES CAPARROS GIBERNAU 05:41:53 435

330 - 353 - MARCOS MEDINA DIAZ DE LOPEZ 05:41:55 208

331 - 354 - JUAN MANUEL LóPEZ MARFIL 05:42:38 121

332 - 355 - DAI KONDO 05:42:42 598

333 - 356 - JAIME RAMIREZ ARAUJO 05:42:57 342

334 - 357 - QUIQUE DE LA HOZ GONZáLEZ 05:43:35 531

335 - 359 - SERGI VIVES MELENDEZ 05:44:04 25

336 - 360 - JORDI BOSQUE COLLS 05:44:06 110

337 - 361 - SERGI VILLENA ROMERO 05:44:08 67

338 - 362 - TONI FERRéS RUSINéS 05:44:42 276

339 - 363 - DIONISIO MAñAS ALBA 05:45:48 172

340 - 364 - DANIEL RODRIGUEZ RUIZ 05:46:29 461

341 - 365 - FRANCESC LORENTE JIMENEZ 05:46:49 495

342 - 366 - CESAR OBEA CASTILLO 05:46:51 560

343 - 367 - JOAN LLOPART MORAGAS 05:47:12 162

344 - 368 - GERMAN BAQUEDANO SANCHEZ 05:47:44 223

345 - 369 - ERIC PASTOR MASANA 05:47:47 615

346 - 370 - ALFONSO GAñAN MARTINEZ 05:47:55 123

347 - 371 - JORDI COMPANY FERRAGUT 05:48:09 201

348 - 372 - SANTI LOZANO SALA 05:48:26 360

349 - 373 - MIQUEL PUIGGRÒS CLANCHET 05:48:29 570

350 - 374 - TONI MARQUEZ JIMENEZ 05:48:33 180

351 - 375 - ELOI VILA CULLARES 05:48:35 614

352 - 376 - DANI VILAR ROQUET 05:48:37 443

353 - 377 - JAVIER MORENO OLMOS 05:48:41 60

354 - 378 - XAVI PINTO CERVERA 05:48:44 185

355 - 379 - DAVID GIMENEZ LOPEZ 05:48:45 217

356 - 380 - RUBEN CERCOS TRIVIñO 05:49:01 542

357 - 381 - SALVADOR DE MOYA RIBERA 05:49:15 465

358 - 382 - CARLES FERRúS PIQUET 05:49:20 72

359 - 383 - ALBERTO ROSALES CORDERO 05:49:24 94

360 - 384 - XAVIER COROMINAS NORIA 05:49:28 151

361 - 385 - ADRIà BERNúS DOMINGUEZ 05:50:21 569

362 - 386 - JOSEP CASTAñé 05:50:27 370

363 - 387 - JOAN PRATS MORILLA 05:50:42 341

364 - 388 - CHRISTIAN JAMMES 05:51:11 24

365 - 389 - LLUÍS ARANDA FERNANDEZ 05:51:55 315

366 - 390 - MARC ANDREU PEDROSA 05:53:46 65

367 - 391 - IÑAKI MALED GARCIA 05:54:32 156

368 - 392 - ROBERTO VELEZ 05:54:33 128

369 - 393 - ALFRED FERRéS RUSINéS 05:55:16 277

370 - 395 - AGUSTIN MARTINEZ HERNANDEZ 05:56:25 187

371 - 396 - JOSEP BOSCH PALAU 05:56:34 391

372 - 397 - ALEX VIDAL 05:58:09 445

373 - 400 - ANTONIO RAMOS TORRICO 05:59:00 117

374 - 401 - JUAN JIMENEZ AIZA 05:59:07 226

375 - 404 - GERARD VILELLA LOPEZ 05:59:16 176

376 - 406 - JOSE ANTONIO GONZALEZ ARIZA 05:59:30 146

377 - 407 - JOSé MANUEL BLANCO ZAMBRANO 05:59:38 589

378 - 409 - PEDRO BENITEZ ORTIZ 05:59:42 184

379 - 410 - JORDI GÜERA TORNAMORELL 05:59:45 413

380 - 411 - MANEL AGUILERA LÓPEZ 06:01:47 131

381 - 412 - MATIAS AYUSO MARTINEZ 06:01:52 308

382 - 416 - MIQUEL ARNAL ESPINAL 06:02:33 57

383 - 418 - BIEL SALAS FERRAGUT 06:03:20 181

384 - 419 - VICTOR MURIA BADIA 06:04:02 248

385 - 420 - NÉSTOR VILELLA BARBA 06:04:11 430

386 - 421 - PABLO CERVERA ROUX 06:04:24 602

387 - 422 - SANTIAGO ROYO GINER 06:04:35 630

388 - 423 - IGNASI GIL PALACIOS 06:04:39 190

389 - 424 - OSCAR ANDREU OLMO 06:04:55 86

390 - 425 - ALBERTO ARNAIZ . 06:05:01 361

391 - 426 - DAVID FERNANDEZ GARCíA 06:05:01 609

392 - 429 - FERRAN MARMANEU PORCAR 06:05:38 13

393 - 430 - SILVERIO MARIN JULIAN 06:05:41 31

394 - 431 - LLUíS VERA VINARDELL 06:05:43 169

395 - 432 - ARTUR SERRANO MARTINEZ 06:05:44 30

396 - 434 - RAUL ANGUITA ONDOñO 06:06:15 554

397 - 435 - VíCTOR LóPEZ MARTíNEZ 06:06:39 498

398 - 436 - ERIK PéREZ MUñOZ 06:06:41 90

399 - 437 - MINGO GALLARDO GARCíA 06:06:44 48

400 - 439 - NELSON GUSTAVO ROJAS OTAROLA 06:09:22 527

401 - 440 - JORDI BALIUS FORT 06:10:14 488

402 - 442 - JAVIER BRETóN BLAS 06:11:42 21

403 - 443 - KEN VUI YAP 06:11:45 87

404 - 444 - ORIOL BAIXAS MORALES 06:11:59 230

405 - 445 - DAVID PEñARANDA DURAN 06:12:07 153

406 - 446 - ALVARO DE CABO TEJERINA 06:12:29 477

407 - 448 - FRANCISCO ALONSO 06:13:39 160

408 - 449 - DAVID BARROSO CASAPONSA 06:13:49 486

409 - 451 - ANTONIO ATIENZA MARTíNEZ 06:14:12 142

410 - 452 - MANUEL ARROYO NAVARRO 06:14:15 345

411 - 454 - YUNIEL CASTRO GONZáLEZ 06:14:19 262

412 - 459 - JOSE ANTONIO FERNáNDEZ ROS 06:15:43 81

413 - 462 - MIQUEL GARCIA SAIZ 06:17:13 209

414 - 468 - JUAN CARLOS REBOLO VALIñO 06:22:12 485

415 - 476 - FRANC LLUIS GIRÓ 06:22:57 163

416 - 476 - FRANC LLUIS GIRÓ 06:22:57 163

417 - 482 - SERGI ROVIRA PéREZ 06:25:50 483

418 - 496 - DíDAC ESPINOSA BERNIS 06:57:34 364

419 - 497 - RICARD MELERO QUIñONERO 07:11:16 362

Mujeres

# - Posició P.C. - Participant Temps Dorsal

1 - 36 - INGRID RUIZ SáNCHEZ 04:05:24 611

2 - 61 - MARTA MUIXí CASALDàLIGA 04:24:35 580

3 - 93 - AMANDA MARTIN 04:36:30 359

4 - 104 - ADRIANA TARRé CASABLANCAS 04:40:06 559

5 - 109 - MARTA SEGURA RIUS 04:41:27 259

6 - 115 - LORENA RENAU SANCHEZ 04:44:52 383

7 - 160 - Mª CARMEN SáNCHEZ IZQUIERDO 04:58:25 328

8 - 183 - MAITE URRUTIA ALONSO 05:03:22 528

9 - 189 - MLLUISA RUIZ ADELL 05:04:15 508

10 - 210 - SARA LAIA GALVANY ROSELLó 05:07:23 496

11 - 225 - EVA MARIA TAPIA LUQUE 05:12:44 334

12 - 235 - DOLORES MARTíN TORRES 05:13:34 581

13 - 238 - SONIA LABRADOR SIERRA 05:13:44 418

14 - 245 - NúRIA RUBIO BELLAVISTA 05:15:27 335

15 - 258 - MONTSERRAT ELIAS TRIVIÑO 05:19:21 80

16 - 259 - ÀNGELA GARCIA FEMENIA 05:19:42 551

17 - 281 - SARA SANZ VILLARES 05:26:44 366

18 - 282 - M. EUGENIA MUNTÉ MATEU MUNTé MATEU 05:26:48 584

19 - 285 - AINARA LARREA IDIAZABAL 05:27:08 382

20 - 296 - LAURA PLANES SAURí 05:29:44 70

21 - 304 - ANA PéREZ-VICO 05:30:44 26

22 - 306 - AUBERT DORIANE 05:30:49 301

23 - 322 - PILI UREÑA ANTOLIN 05:33:53 509

24 - 337 - MARTA PUJOL ARMENGOL 05:37:46 29

25 - 358 - MARIE KLINDEROVA 05:43:37 595

26 - 394 - CARMEN RODRIGUEZ JIMENEZ 05:55:21 591

27 - 398 - EVA PAGESPETIT CUNILL 05:58:50 606

28 - 399 - MYRIAM RAMOS CASTELL 05:58:59 116

29 - 402 - SUSANA SANCHEZ SANCHEZ 05:59:08 227

30 - 405 - MóNICA LEANDRO GOZALBO 05:59:20 16

31 - 408 - MóNICA DOMíNGUEZ HERNANDEZ 05:59:41 186

32 - 413 - ESTHER JO BASQUENS 06:01:52 309

33 - 414 - ANA PASCUAL HOYAS 06:01:57 78

34 - 415 - ISABEL ABRIL CENTENO 06:02:03 533

35 - 427 - ROSI PEREZ BELEÑA 06:05:32 18

36 - 428 - MIRIAM FLORES AYALA 06:05:36 132

37 - 433 - KARINE GIRAUX 06:06:12 354

38 - 438 - MIREIA MUñOZ MAS 06:06:59 83

39 - 450 - ELISENDA BRASAL RAFAEL 06:14:10 612

40 - 453 - SONIA JIMéNEZ ZAMORA 06:14:17 143

41 - 455 - MIRIAM PASCUAL ABIA 06:14:26 147

42 - 456 - SILVIA PALLARES AREVALO 06:14:47 255

43 - 469 - CRISTINA PUIG COLOMER 06:22:20 555

Publicidad